Location: Terre Du Lac
(37.9120°N, 90.6250°W)
Time: 04:44:22
(UTC-06:00)

Hubble Space Telescope - Visible Passes

Search period start: 10 February 2016 00:00
Search period end: 20 February 2016 00:00
Orbit: 540 x 544 km, 28.5° (Epoch: 09 February)

Date Brightness Start Highest point End Pass type
(mag) Time Alt. Az. Time Alt. Az. Time Alt. Az.
10 Feb 3.2 19:16:38 10° S 19:17:31 11° SSE 19:17:31 11° SSE visible
11 Feb 3.0 19:06:18 10° SSW 19:08:19 13° SSE 19:08:46 13° SSE visible
12 Feb 2.8 18:56:19 10° SSW 18:58:46 15° SSE 18:59:59 14° SE visible
13 Feb 2.8 18:46:27 10° SSW 18:49:13 17° SSE 18:51:11 13° SE visible
14 Feb 2.7 18:36:43 10° SW 18:39:41 19° S 18:42:22 11° SE visible
14 Feb 3.6 20:17:10 10° SW 20:17:47 13° SW 20:17:47 13° SW visible
15 Feb 2.7 18:27:02 10° SW 18:30:09 20° S 18:33:15 10° SE visible
15 Feb 3.3 20:07:44 10° SW 20:08:57 15° SW 20:08:57 15° SW visible
16 Feb 2.7 18:17:25 10° SW 18:20:36 21° S 18:23:49 10° SE visible
16 Feb 3.1 19:58:20 10° SW 20:00:08 17° SSW 20:00:08 17° SSW visible
17 Feb 2.7 18:07:51 10° SW 18:11:05 22° S 18:14:19 10° SE visible
17 Feb 3.0 19:48:59 10° SW 19:51:20 17° SSW 19:51:20 17° SSW visible
18 Feb 3.0 19:39:43 10° SW 19:42:12 15° SSW 19:42:35 15° S visible
19 Feb 3.2 19:30:35 10° SW 19:32:38 13° SSW 19:33:52 12° S visible
